Погода в Кизеле

Россия / Пермский край     59°02′57″N   57°39′13″E
темп.,
°C
ветер,
м/с
пор.,
м/с
влажн.,
%
обл.,
%
осадки,
мм/ч
давл.,
гПа
погр.,
м
28 января, чт
чт2823:00−5ююз51293100 0.3 1020683
02:00−7ю51292100 0.1 1019538
05:00−7ююз51491100 0.1 1018611
08:00−7юз51593100 0.1 1017662
11:00−6юз61394100 0.6 1016726
14:00−6юз51295100 1.7 1016627
17:00−6юз51195100 3.4 1017596
20:00−6зюз4996100 1.4 1019509
29 января, пт
пт2923:00−7юз2797100 2.0 1019297
02:00−7ю2596100 0.5 1020243
05:00−8ю2696100 0.9 1021251
08:00−11юв2297100 0.0 102026
11:00−10вюв2296100 0.0 1021102
14:00−7юв269396 0.0 1020275
17:00−6юв4108999 0.0 1020313
20:00−6вюв61488100 0.0 1020396
30 января, сб
сб3023:00−10вюв51386100 0.0 1020336
02:00−14вюв51588100 0.0 1019321
05:00−15вюв71786100 0.0 1019390
08:00−17вюв81687100 0.0 1017404
11:00−18вюв41391100 0.0 1016301
14:00−17вюв51395100 0.5 1016319
17:00−18вюв51295100 1.1 1015320
20:00−18вюв41296100 0.6 1015284
31 января, вс
вс3123:00−17вюв3119699 0.9 1015268
02:00−16вюв3695100 0.3 1014233
05:00−15юв3796100 0.7 1013215
08:00−14вюв2396100 1.0 1013127
11:00−12юв2596100 1.3 1014146
14:00−6ю369599 0.1 1015403
17:00−6ююз3695100 0.3 1017422
20:00−6ю3795100 0.1 1017400
1 февраля, пн
пн123:00−9юв2297100 0.1 101733
02:00−10вюв2598100 0.0 1016144
05:00−7юв61295100 0.1 1014471
08:00−7юв71691100 0.0 1010478
11:00−7юв71591100 0.3 1008728
14:00−8юв61292100 1.7 1006463
17:00−5юв4109699 2.5 1006620
20:00−4юз51095100 1.9 1007885